Weather History for KIPT - February, 2011

Change the Weather History Date:

Sunday, February 27, 2011

  Actual Average Record
Temperature  
Mean Temperature 37 °F 32 °F  
Max Temperature 43 °F 42 °F 69 °F (1997)
Min Temperature 30 °F 24 °F -5 °F (1963)
Degree Days  
Heating Degree Days 28 33  
Month to date heating degree days 982 956  
Since 1 July heating degree days 4530 4435  
Cooling Degree Days 0 0  
Month to date cooling degree days 0 0  
Year to date cooling degree days 0 0  
Moisture  
Dew Point 28 °F    
Average Humidity 71    
Maximum Humidity 85    
Minimum Humidity 57    
Precipitation  
Precipitation 0.00 in 0.08 in 1.20 in (1958)
Month to date precipitation 3.60 2.25  
Year to date precipitation 4.85 4.95  
Snow  
Snow 0.00 in 0.30 in 6.00 in (1934)
Month to date snowfall 13.6 8.5  
Since 1 July snowfall 32.6 27.7  
Snow Depth 0.00 in    
Sea Level Pressure  
Sea Level Pressure 29.95 in    
Wind  
Wind Speed 4 mph (SE)    
Max Wind Speed 17 mph    
Max Gust Speed 21 mph    
Visibility 10 miles    
Events      
T = Trace of Precipitation, MM = Missing Value Source: NWS Daily Summary

Daily Weather History Graph

Daily Weather History Graph

Search for Another Location

Airport or City:

Trip Planner

Search our weather history database for the weather conditions in past years. The results will help you decide how hot, cold, wet, or windy it might be!

Date:

Astronomy

Feb. 27, 2011 Rise Set
Actual Time 6:45 AM EST 5:55 PM EST
Civil Twilight 6:17 AM EST 6:23 PM EST
Nautical Twilight 5:45 AM EST 6:55 PM EST
Astronomical Twilight 5:13 AM EST 7:27 PM EST
Moon 3:37 AM EST 1:06 PM EST
Length of Visible Light 12h 05m
Length of Day
11h 10m
Waning Crescent, 23% of the Moon is Illuminated
Feb 27
Waning Crescent
Mar 4
New
Mar 12
First Quarter
Mar 19
Full
Mar 26
Last Quarter

Hourly Weather History & Observations

Time (EST) Temp. Windchill Dew Point Humidity Pressure Visibility Wind Dir Wind Speed Gust Speed Precip Events Conditions
12:54 AM 36.0 °F 32.1 °F 24.1 °F 62% 29.86 in 10.0 mi Variable 4.6 mph - N/A   Overcast
1:54 AM 34.0 °F - 26.1 °F 73% 29.87 in 10.0 mi Calm Calm - N/A   Overcast
2:54 AM 33.1 °F 27.7 °F 27.0 °F 78% 29.88 in 10.0 mi WSW 5.8 mph - N/A   Overcast
3:19 AM 33.8 °F 27.7 °F 26.6 °F 75% 29.87 in 10.0 mi West 6.9 mph - N/A   Overcast
3:31 AM 33.8 °F 30.8 °F 26.6 °F 75% 29.87 in 10.0 mi WNW 3.5 mph - N/A   Overcast
3:54 AM 34.0 °F 29.8 °F 26.1 °F 73% 29.88 in 10.0 mi WNW 4.6 mph - N/A   Overcast
4:54 AM 32.0 °F - 26.1 °F 79% 29.90 in 10.0 mi Calm Calm - N/A   Overcast
5:54 AM 32.0 °F 28.7 °F 25.0 °F 75% 29.92 in 10.0 mi WNW 3.5 mph - N/A   Mostly Cloudy
6:54 AM 30.9 °F - 26.1 °F 82% 29.96 in 9.0 mi Calm Calm - N/A   Overcast
7:54 AM 32.0 °F - 28.0 °F 85% 29.98 in 8.0 mi Calm Calm - N/A   Overcast
8:54 AM 34.0 °F - 28.0 °F 79% 29.99 in 8.0 mi Calm Calm - N/A   Overcast
9:54 AM 37.0 °F 33.3 °F 28.0 °F 70% 30.01 in 10.0 mi West 4.6 mph - N/A   Overcast
10:54 AM 37.0 °F 31.6 °F 28.0 °F 70% 30.04 in 10.0 mi WSW 6.9 mph - N/A   Overcast
11:54 AM 37.9 °F 34.4 °F 27.0 °F 65% 30.03 in 10.0 mi West 4.6 mph - N/A   Overcast
12:54 PM 41.0 °F - 28.0 °F 60% 30.00 in 10.0 mi Calm Calm - N/A   Overcast
1:54 PM 42.1 °F - 28.0 °F 58% 29.98 in 10.0 mi Calm Calm - N/A   Overcast
2:54 PM 42.1 °F 39.2 °F 28.0 °F 58% 29.97 in 10.0 mi ESE 4.6 mph - N/A   Mostly Cloudy
3:54 PM 43.0 °F 40.3 °F 28.0 °F 56% 29.99 in 10.0 mi Variable 4.6 mph - N/A   Mostly Cloudy
4:54 PM 43.0 °F 39.5 °F 28.9 °F 58% 29.98 in 10.0 mi East 5.8 mph - N/A   Clear
5:54 PM 39.9 °F 37.8 °F 28.9 °F 65% 29.98 in 10.0 mi East 3.5 mph - N/A   Clear
6:54 PM 39.9 °F 37.8 °F 28.9 °F 65% 29.99 in 10.0 mi NE 3.5 mph - N/A   Clear
7:54 PM 39.0 °F 34.8 °F 28.9 °F 67% 29.98 in 10.0 mi ESE 5.8 mph - N/A   Clear
8:54 PM 37.9 °F 32.7 °F 28.9 °F 70% 29.96 in 10.0 mi SSE 6.9 mph - N/A   Clear
9:54 PM 37.9 °F 34.4 °F 28.9 °F 70% 29.97 in 10.0 mi SE 4.6 mph - N/A   Clear
10:54 PM 39.0 °F 32.8 °F 28.9 °F 67% 29.96 in 10.0 mi East 9.2 mph - N/A   Clear
11:54 PM 41.0 °F 33.5 °F 30.0 °F 65% 29.93 in 10.0 mi ENE 13.8 mph - N/A   Mostly Cloudy